EHI
0 0 0 0 0 0 0 0 0 0 0 0 0 0 0 0 0 0 0 0 0 0 0 0 0 0 0 0 0 0 0 0 0 0 0 0 0 0 0 0 0 0 0
0 0 0 0 0 0 0 0 0 0 0 0 0 0 0 0 0 0 0 0 0 0 0 0 0 0 0 0 0 0 0 0 0 0 0 0 0 0 0 0 0 0 0
0 0 0 0 0 0 0 0 0 0 0 0 0 0 0 0 0 0 0 0 0 0 0 0 0 0 0 0 0 0 0 0 0 0 0 0 0 0 0 0 0 0 0
0 0 0 0 0 0 0 0 0 0 0 0 0 0 0 0 0 0 0 0 0 0 0 0 0 0 0 0 0 0 0 0 0 0 0 0 0 0 0 0 0 0 0
0 0 0 0 0 0 0 0 0 0 0 0 0 0 0 0 0 0 0 0 0 0 0 0 0 0 0 0 0 0 0 0 0 0 0 0 0 0 0 0 0 0 0
0 0 0 0 0 0 0 0 0 0 0 0 0 0 0 0 0 0 0 0 0 0 0 0 0 0 0 0 0 0 0 0 0 0 0 0 0 0 0 0 0 0 0
0 0 0 0 0 0 0 0 0 0 0 0 0 0 0 0 0 0 0 0 0 0 0 0 0 0 0 0 0 0 0 0 0 0 0 0 0 0 0 0 0 0 0
0 0 0 0 0 0 0 0 0 0 0 0 0 0 0 0 0 0 0 0 0 0 0 0 0 0 0 0 0 0 0 0 0 0 0 0 0 0 0 0 0 0 0
1 0 0 0 0 0 0 0 0 0 0 0 0 0 0 0 0 0 0 0 0 0 0 0 0 0 0 0 0 0 0 0 0 0 0 0 0 0 0 0 0 0 0
1 0 0 0 0 0 0 0 0 0 0 0 0 0 0 0 0 0 0 0 0 0 0 0 0 0 0 0 0 0 0 0 0 0 0 0 0 0 0 0 0 0 0
1 0 0 0 0 0 0 0 0 0 0 0 0 0 0 0 0 0 0 0 0 0 0 0 0 0 0 0 0 0 0 0 0 0 0 0 0 0 0 0 0 0 0
0 0 0 0 0 0 0 0 0 0 0 0 0 0 0 0 0 0 0 0 0 0 0 0 0 0 0 0 0 0 0 0 0 0 0 0 0 0 0 0 0 0 0
0 0 0 0 0 0 0 0 0 0 0 0 0 0 0 0 0 0 0 0 0 0 0 0 0 0 0 0 0 0 0 0 0 0 0 0 0 0 0 0 0 0 0
0 0 0 0 0 0 0 0 0 0 0 0 0 0 0 0 0 0 0 0 0 0 0 0 0 0 0 0 0 0 0 0 0 0 0 0 0 0 0 0 0 0 0
0 0 0 0 0 0 0 0 0 0 0 0 0 0 0 0 0 0 0 0 0 0 0 0 0 0 0 0 0 0 0 0 0 0 0 0 0 0 0 0 0 0 0
0 0 0 0 0 0 0 0 0 0 0 0 0 0 0 0 0 0 0 0 0 0 0 0 0 0 0 0 0 0 0 0 0 0 0 0 0 0 0 0 0 0 0
0 0 0 0 0 0 0 0 0 0 0 0 0 0 0 0 0 0 0 0 0 0 0 0 0 0 0 0 0 0 0 0 0 0 0 0 0 0 0 0 0 0 0
0 0 0 0 0 0 0 0 0 0 0 0 0 0 0 0 0 0 0 0 0 0 0 0 0 0 0 0 0 0 0 0 0 0 0 0 0 0 0 0 0 0 0
0 0 0 0 0 0 0 0 0 0 0 0 0 0 0 0 0 0 0 0 0 0 0 0 0 0 0 0 0 0 0 0 0 0 0 0 0 0 0 0 0 0 0
0 0 0 0 0 0 0 0 0 0 0 0 0 0 0 0 0 0 0 0 0 0 0 0 0 0 0 0 0 0 0 0 0 0 0 0 0 0 0 0 0 0 0
0 0 0 0 0 0 0 0 0 0 0 0 0 0 0 0 0 0 0 0 0 0 0 0 0 0 0 0 0 0 0 0 0 0 0 0 0 0 0 0 0 0 0
0 0 0 0 0 0 0 0 0 0 0 0 0 0 0 0 0 0 0 0 0 0 0 0 0 0 0 0 0 0 0 0 0 0 0 0 0 0 0 0 0 0 0
0 0 0 0 0 0 0 0 0 0 0 0 0 0 0 0 0 0 0 0 0 0 0 0 0 0 0 0 0 0 0 0 0 0 0 0 0 0 0 0 0 0 0
0 0 0 0 0 0 0 0 0 0 0 0 0 0 0 0 0 0 0 0 0 0 0 0 0 0 0 0 0 0 0 0 0 0 0 0 0 0 0 0 0 0 0
0 0 0 0 0 0 0 0 0 0 0 0 0 0 0 0 0 0 0 0 0 0 0 0 0 0 0 0 0 0 0 0 0 0 0 0 0 0 0 0 0 0 0
0 0 0 0 0 0 0 0 0 0 0 0 0 0 0 0 0 0 0 0 0 0 0 0 0 0 0 0 0 0 0 0 0 0 0 0 0 0 0 0 0 0 0
Wind_Speed
6 5 6 5 4 4 4 4 4 4 4 4 4 4 4 3 3 4 3 4 4 3 3 4 4 3 3 3 3 3 3 3 3 1 2 3 4 4 4 4 3 3 4
6 6 6 5 4 4 4 4 4 5 4 4 4 4 3 3 3 4 4 4 4 4 3 4 3 3 4 3 3 3 2 2 3 1 2 3 3 3 3 3 4 4 3
6 6 6 5 5 4 4 4 4 5 4 4 4 4 3 3 3 4 4 4 3 3 3 3 3 4 3 2 3 3 2 3 2 2 1 2 2 3 3 4 4 3 4
7 7 6 6 6 5 4 4 4 5 5 4 4 4 4 3 4 4 4 4 4 3 3 3 3 3 3 2 3 2 3 3 3 2 1 2 2 3 2 3 4 3 4
8 7 6 6 5 5 5 5 5 5 5 5 4 3 3 3 4 5 4 5 4 3 3 3 3 4 4 3 3 2 3 3 2 2 2 2 2 3 3 2 2 3 3
8 7 6 6 6 6 5 5 5 4 4 4 4 4 4 3 6 8 6 4 4 4 3 2 2 3 4 5 5 5 4 3 2 2 1 1 2 2 2 2 2 3 4
7 7 7 7 6 6 6 6 5 4 4 4 4 4 4 4 7 8 8 5 4 3 2 2 2 3 3 2 4 5 4 4 4 3 2 1 1 2 1 2 2 1 2
7 7 7 7 7 6 6 6 5 4 4 4 4 4 4 4 8 9 9 5 4 3 2 2 2 1 2 3 3 2 2 2 1 1 2 2 1 1 1 1 2 2 3
8 7 7 8 7 7 6 6 5 5 4 4 4 4 4 3 7 9 8 4 3 2 1 2 2 2 2 4 3 2 1 2 2 2 2 2 4 4 3 2 2 2 4
9 8 8 8 8 8 7 5 4 5 4 4 3 3 4 3 6 7 8 4 3 2 1 1 2 2 2 3 2 2 1 2 1 2 3 4 3 4 5 1 0 1 2
7 7 7 7 8 7 5 4 5 5 5 4 3 2 2 3 5 6 7 4 4 3 2 1 1 2 2 3 2 2 2 1 0 0 1 2 2 2 2 2 1 1 1
8 8 7 7 7 6 6 5 5 5 5 4 3 2 1 1 3 4 6 6 5 4 3 2 2 2 2 2 1 1 1 2 1 1 1 2 2 2 3 3 2 2 3
8 8 7 6 5 6 7 6 5 4 4 4 3 3 2 1 2 4 5 6 6 3 2 3 3 2 1 1 1 2 2 1 1 0 1 2 2 3 3 3 3 3 3
9 8 7 7 5 5 5 5 5 5 5 4 4 4 2 1 1 2 2 3 3 3 2 2 3 2 1 1 2 1 0 1 1 1 2 2 2 2 2 2 2 3 3
8 7 6 6 6 5 4 4 5 5 7 7 6 5 5 4 4 6 4 3 3 3 3 2 1 1 0 1 1 1 1 0 0 1 1 2 2 2 3 2 2 2 3
8 7 6 5 5 5 4 2 1 2 5 6 7 6 4 5 5 6 6 6 6 7 4 2 1 1 2 1 1 1 1 1 1 1 1 2 2 3 3 3 2 2 4
9 7 6 6 5 5 5 5 3 0 1 3 6 7 7 7 7 6 6 6 6 7 3 2 2 2 2 2 2 1 2 2 2 1 2 2 2 2 3 3 3 3 4
8 8 7 6 6 5 5 5 5 5 3 1 2 5 6 6 6 6 7 6 2 2 2 2 2 2 2 2 2 2 2 1 1 1 1 2 2 2 3 3 4 4 5
7 5 5 5 5 5 5 4 4 4 4 3 1 1 4 4 4 5 6 4 3 3 3 2 2 2 2 2 2 2 1 1 1 1 2 2 2 2 3 4 4 6 5
6 8 7 5 5 5 4 4 4 4 4 4 4 3 3 3 2 2 3 3 3 3 3 3 3 2 2 2 2 2 1 2 2 2 2 2 3 3 4 4 4 4 4
5 6 8 6 5 5 5 5 5 5 4 4 4 4 7 5 4 4 4 4 4 4 4 3 3 3 3 2 2 2 2 2 2 2 2 3 3 3 4 4 4 5 5
5 5 5 5 5 5 5 5 5 5 5 5 3 3 6 4 3 4 4 4 4 4 4 4 3 3 3 3 3 2 2 3 3 3 3 3 3 4 4 4 4 4 5
6 6 5 4 4 5 5 4 4 5 5 4 4 4 4 4 4 4 4 4 3 3 3 3 3 3 3 3 3 3 4 4 3 3 3 3 4 4 4 4 5 6 6
6 6 5 5 4 4 4 4 4 4 4 4 4 4 4 4 4 4 4 3 3 3 3 3 4 5 5 3 3 3 3 3 3 3 4 4 4 4 4 4 5 6 6
5 5 5 5 5 5 4 4 4 4 4 4 4 4 4 4 4 4 3 3 3 3 4 4 3 4 5 5 4 3 4 4 4 3 3 3 4 4 4 5 5 5 6
5 5 4 4 4 4 5 4 4 4 4 4 3 3 4 4 4 4 4 4 3 3 3 3 4 4 4 4 4 4 4 5 5 4 2 2 3 3 4 4 6 6 6
Wind_Direction
160 154 150 155 148 141 147 157 155 143 139 133 128 116 106 95 88 87 85 84 82 69 65 75 63 59 60 49 56 61 65 94 108 331 338 344 11 14 1 2 7 10 6
162 153 154 151 144 145 151 157 150 144 143 139 133 122 116 109 102 103 101 91 91 85 78 78 66 71 61 53 62 63 65 79 112 89 348 352 359 353 354 4 5 8 355
155 152 152 151 148 153 155 149 144 141 134 129 128 129 127 123 114 111 109 102 95 93 96 98 88 83 69 58 65 64 57 59 74 98 4 340 337 349 355 353 358 350 351
156 156 159 164 163 161 154 147 145 142 136 135 135 136 136 130 122 117 111 106 98 88 93 103 100 103 109 97 76 67 73 68 63 68 31 350 333 330 4 350 343 342 343
158 162 171 166 157 149 146 146 142 139 141 140 133 129 126 127 133 131 123 118 110 98 81 82 90 96 95 102 101 105 98 87 75 65 36 11 348 348 339 320 330 323 328
163 169 165 156 152 149 148 142 135 133 134 127 129 129 123 131 135 135 131 123 120 120 110 83 73 73 77 81 90 95 107 112 115 98 61 22 308 305 312 332 336 351 329
163 164 162 159 155 155 150 141 140 142 135 128 130 130 132 139 135 133 131 128 123 127 131 117 87 74 74 82 72 68 69 78 106 139 134 213 252 269 300 336 330 311 279
160 162 161 157 156 153 147 148 148 140 139 139 144 146 143 147 138 133 130 121 114 124 140 142 131 119 101 112 99 70 45 25 50 117 160 211 236 246 213 250 264 296 292
167 170 167 160 157 156 156 156 152 142 142 145 150 150 144 150 142 136 129 121 114 126 140 135 144 160 123 112 108 100 44 346 15 51 44 23 12 13 23 30 5 0 323
177 174 168 161 159 162 163 157 148 146 149 147 145 155 157 162 153 143 140 136 135 139 116 127 145 145 125 115 129 137 149 277 328 2 4 355 348 352 8 41 198 320 306
168 159 160 162 161 159 155 149 144 143 142 145 147 153 161 169 163 158 159 158 161 156 159 196 206 144 131 128 131 156 188 210 221 346 337 338 341 340 332 322 255 201 257
152 153 157 160 161 154 149 149 145 143 143 150 144 145 173 189 173 171 171 171 161 156 179 206 197 155 134 131 128 106 76 57 59 29 2 332 322 311 303 299 289 269 246
152 157 157 151 152 150 153 153 149 150 153 163 160 171 197 208 195 178 173 170 171 172 183 174 160 145 118 82 61 58 62 90 95 51 292 282 279 282 295 305 306 299 296
157 160 156 152 148 148 154 159 160 169 171 173 177 185 191 185 192 183 177 169 166 168 169 151 127 112 104 76 42 25 66 160 174 219 254 271 289 303 306 307 308 316 317
157 158 156 155 155 155 160 168 174 189 188 182 188 182 176 194 209 182 167 172 174 173 141 103 86 77 45 352 335 321 320 337 284 257 266 288 301 306 302 303 299 306 303
157 159 159 157 157 157 152 140 134 170 183 183 179 175 187 193 179 174 176 175 171 157 133 143 181 195 212 233 249 275 276 268 259 254 265 274 288 294 300 304 300 296 295
162 164 162 162 163 165 165 163 163 100 134 178 183 182 184 179 175 174 172 166 161 149 143 179 198 211 224 227 228 237 253 261 257 254 259 269 280 288 296 302 304 300 295
162 167 165 168 170 172 175 176 173 171 176 216 227 202 193 184 173 168 158 139 132 143 172 195 211 216 219 224 228 239 255 271 269 268 272 279 279 287 295 296 296 292 294
161 165 167 165 167 169 167 163 165 170 172 175 167 205 195 179 165 162 152 154 174 190 199 207 214 216 219 223 231 235 242 254 260 265 276 284 287 291 292 291 290 297 298
163 167 163 161 160 160 161 163 168 171 175 180 190 193 168 146 163 179 182 185 190 199 203 208 211 209 213 218 220 222 236 254 262 263 273 278 280 280 282 286 289 292 290
157 164 163 160 167 169 169 174 175 175 182 192 204 196 177 177 189 193 193 200 203 204 203 205 207 209 213 208 209 220 232 248 252 256 266 274 278 281 281 282 288 289 292
158 160 164 169 170 170 173 174 173 177 184 189 196 193 188 185 192 198 202 207 209 208 202 196 202 206 204 204 207 212 227 245 255 259 266 273 278 280 285 287 288 291 293
157 159 162 165 167 168 169 172 177 182 185 188 187 187 186 196 203 205 206 207 204 204 200 192 199 210 213 212 210 205 215 230 241 247 260 274 282 284 285 286 289 294 294
160 163 166 168 165 166 172 179 182 184 184 186 190 195 196 199 203 207 206 202 202 206 205 204 209 214 215 214 215 217 223 234 243 247 251 263 274 281 286 288 289 291 295
159 163 168 171 170 170 172 176 180 185 189 190 191 195 198 198 200 204 202 198 200 210 215 212 213 215 213 211 216 224 233 240 250 259 254 255 267 277 286 292 293 296 294
160 162 165 165 167 171 171 174 182 186 191 194 193 195 195 196 199 199 198 198 203 210 214 214 216 212 208 211 218 225 236 246 253 264 263 252 267 279 288 289 294 296 297